Location: Comodoto
(42.6743°N, 0.1298°E)
Time: 15:58:09
(UTC+00:00)

Daily predictions for brighter satellites

Satellite Brightness Start Highest point End
(mag) Time Altitude Azimuth Time Altitude Azimuth Time Altitude Azimuth
Cosmos 2297 Rocket 2.8 16:51:14 10° N 16:56:27 36° ENE 17:01:36 10° ESE
Cosmos 405 Rocket 2.2 16:57:02 10° N 17:00:15 60° ENE 17:03:25 10° SSE
Lacrosse 4 Rocket 3.3 16:57:31 10° WSW 17:00:49 23° NW 17:04:05 10° N
SAR-Lupe-4 4.5 16:57:51 10° SE 17:00:53 27° ENE 17:03:56 10° N
NOSS 2-2 (E) 2.8 16:58:44 10° SW 17:02:20 88° NW 17:05:24 10° NE
SL-08 ROCKET BODY 4.5 16:57:23 10° N 17:03:14 57° E 17:09:09 10° SSE
Cosmos 1570 Rocket 4.0 16:58:29 10° NNW 17:03:49 70° ENE 17:09:06 10° SSE
CENTAUR R/B 3.6 16:59:15 10° WSW 17:04:29 37° NW 17:10:58 10° NNE
Cosmos 2151 3.7 17:01:03 10° NNE 17:04:45 30° ENE 17:08:25 10° SE
Cosmos 1626 Rocket 3.4 17:05:07 10° N 17:09:27 72° E 17:13:44 10° SSE
Cosmos 836 Rocket 4.5 17:04:20 10° NNW 17:09:34 70° ENE 17:14:48 10° SSE
Cosmos 1486 Rocket 4.0 17:06:42 10° S 17:11:50 65° ESE 17:17:01 10° NNE
Cosmos 1782 2.4 17:08:34 10° S 17:12:09 77° E 17:15:46 10° N
Cosmos 1315 Rocket 4.4 17:11:40 10° SW 17:15:11 34° WNW 17:18:42 10° N
Intercosmos 24 3.7 17:14:27 10° N 17:18:16 83° W 17:21:49 10° S
Cosmos 1980 Rocket 3.7 17:17:37 10° SE 17:20:49 16° E 17:22:54 13° ENE
IGS 5A 4.0 17:17:38 10° S 17:21:32 60° W 17:25:28 10° NNW
Cosmos 1733 1.2 17:19:48 10° N 17:21:37 83° WSW 17:23:23 10° S
IRIDIUM 106 4.5 17:17:02 10° N 17:22:08 52° E 17:27:12 10° SSE
Cosmos 1544 Rocket 3.7 17:19:44 10° SSW 17:24:06 77° W 17:28:32 10° N
USA 215 4.5 17:19:58 11° NE 17:24:54 25° N 17:30:02 10° NW
Cosmos 773 Rocket 3.9 17:19:52 10° NNW 17:25:05 76° ENE 17:30:20 10° SSE
SMAP 3.1 17:25:12 10° SSE 17:29:51 88° WSW 17:34:32 10° NNW
ARIANE 5 R/B 2.4 17:25:43 10° SSE 17:30:43 73° ENE 17:35:50 10° N
Okean 1-7 Rocket 3.9 17:27:09 10° N 17:31:20 43° ENE 17:35:29 10° SSE
USA 290 2.4 17:28:47 10° N 17:31:57 48° ENE 17:35:06 10° SE
Cosmos 2084 Rocket 4.2 17:30:16 10° NNW 17:34:01 30° NE 17:36:42 16° E
SAR-Lupe-3 4.2 17:34:25 24° NE 17:35:28 37° E 17:37:49 10° S
Landsat 7 3.7 17:31:01 10° SSE 17:35:39 82° ENE 17:40:19 10° N
COSMO-SKYMED 1 3.7 17:34:13 18° ENE 17:35:41 22° E 17:38:53 10° SE
Cosmos 990 Rocket 4.4 17:31:13 10° S 17:35:56 39° ESE 17:39:59 14° NE
Cosmos 2263 Rocket 3.4 17:32:03 10° N 17:36:15 21° NE 17:38:10 18° ENE
CZ-2D R/B 4.3 17:33:12 10° SE 17:36:46 27° ENE 17:40:19 10° N
SPOT 1/Viking Rocket 3.9 17:32:31 10° SE 17:37:19 39° ENE 17:42:09 10° N
CORIOLIS 4.4 17:32:05 10° S 17:37:23 73° WSW 17:42:44 10° NNW
CZ-2D R/B 2.6 17:35:00 10° SSE 17:38:07 80° ENE 17:41:15 10° N
Cosmos 2208 Rocket 4.1 17:33:51 10° NNW 17:39:02 81° WSW 17:44:13 10° SSE
Cosmos 724 4.3 17:33:10 10° NNW 17:39:11 64° NE 17:45:00 10° SE
SJ-12 3.6 17:37:17 10° SSE 17:41:02 82° ENE 17:44:50 10° N
Cosmos 1726 Rocket 4.2 17:36:51 10° SSE 17:41:06 37° E 17:45:09 11° NNE
UNK 4.3 17:36:42 10° N 17:41:12 58° WNW 17:45:40 10° SSW
Cosmos 1933 3.3 17:37:55 10° S 17:41:38 52° E 17:45:20 10° NNE
Cosmos 2360 4.5 17:37:01 10° SSW 17:42:42 72° WNW 17:48:27 10° NNE
SKYMED 2 3.9 17:41:21 11° NNE 17:45:15 43° E 17:49:23 10° S
ATLAS CENTAUR R/B 0.6 17:42:20 10° NW 17:45:34 87° SW 17:48:41 10° SSE
Helios 1A Rocket 4.3 17:48:36 16° ESE 17:48:36 16° ESE 17:49:53 10° SE
Cosmos 2227 Rocket 2.6 17:42:15 10° N 17:47:33 39° ENE 17:52:48 10° SE
Cosmos 1602 Rocket 3.6 17:43:10 10° N 17:47:35 84° W 17:51:55 10° S
NOSS 2-3 (E) 3.8 17:46:03 10° S 17:49:29 35° ESE 17:50:32 29° E
NOSS 2-3 (D) 3.8 17:48:39 10° S 17:52:06 35° ESE 17:52:59 30° E
BREEZE-M DEB (TANK) 3.3 17:47:29 10° SW 17:52:17 38° SSE 17:53:12 29° ESE
Cosmos 1743 3.4 17:51:04 10° NNW 17:54:12 46° W 17:57:18 10° SSW
SJ-6F 4.2 17:50:44 10° SSE 17:54:41 84° ENE 17:58:42 10° NNW
YAOGAN 1 3.0 17:51:49 10° SE 17:55:42 36° ENE 17:59:36 10° N
Cosmos 1697 Rocket 2.6 17:56:25 10° SSW 18:01:59 79° ESE 18:06:23 17° NNE
NOSS 3-2 (C) 3.3 17:57:13 10° SW 18:02:08 66° NW 18:06:33 17° NNE
Cosmos 783 Rocket 4.4 17:58:11 10° NNW 18:03:32 76° ENE 18:08:48 10° SSE
IRAS Rocket 4.5 17:58:48 10° SE 18:03:57 43° ENE 18:09:06 10° N
CZ-4C R/B 3.0 17:59:54 10° NNW 18:07:05 74° NE 18:15:53 10° SE
BlueWalker 3 2.5 18:04:05 10° WNW 18:07:37 52° SW 18:10:16 16° SSE
Cosmos 1953 Rocket 3.7 18:05:48 10° N 18:10:06 47° ENE 18:14:23 10° SSE
Gbstr 26 Del rocket 2.6 18:09:13 10° SW 18:13:16 87° NW 18:14:05 54° NE
MOS 1 Rocket 4.0 18:10:02 10° S 18:14:44 60° W 18:19:45 10° NNW
Cosmos 1607 4.1 18:13:01 10° NW 18:19:14 73° WSW 18:25:30 10° SSE
Cosmos 1461 3.8 18:16:39 10° WSW 18:20:19 40° NW 18:22:01 26° N
Cosmos-2242 4.1 18:16:53 10° SSE 18:19:15 28° SE 18:19:15 28° SE
Cosmos 1825 Rocket 3.7 18:17:16 10° NNW 18:21:37 74° W 18:25:54 10° S
Meteor 1-26 Rocket 4.3 18:18:41 10° SSE 18:23:49 45° E 18:24:13 44° E
Cosmos 1354 Rocket 4.4 18:19:41 10° SSW 18:24:54 63° WNW 18:28:58 17° N
Spot 4 Rocket 3.9 18:23:33 10° SSE 18:28:39 84° ENE 18:33:47 10° NNW
Cosmos 1900 4.3 18:25:25 10° NNW 18:30:28 84° WSW 18:34:00 19° SSE
Cosmos 2058 Rocket 3.1 18:29:54 10° S 18:33:48 59° SE 18:33:48 59° SE
Meteor 2-10 4.0 18:31:02 10° N 18:36:21 64° ENE 18:41:50 10° SSE
Cosmos 1553 Rocket 4.0 18:33:41 10° SSE 18:39:37 55° E 18:40:28 50° ENE
Cosmos 2297 Rocket 3.8 18:35:19 10° NW 18:40:25 35° WSW 18:45:29 10° S
Cosmos 1898 Rocket 3.9 18:35:51 10° S 18:39:51 45° SE 18:39:51 45° SE
Cosmos 1867 3.9 18:47:00 10° NW 18:52:24 64° WSW 18:55:30 25° SSE
Cosmos 1076 Rocket 4.4 18:52:02 10° NNW 18:56:10 47° W 19:00:18 10° SSW
Cosmos 2219 4.1 18:50:40 10° NNW 18:54:13 35° N 18:54:13 35° N
USA 238 DEB 3.4 18:55:48 10° SW 19:01:50 83° NW 19:02:56 64° NNE
Aureole 1 Rocket 3.7 18:57:51 10° SSW 19:00:55 51° SW 19:00:55 51° SW
USA 238 3.4 18:55:54 10° SW 19:01:57 84° NW 19:03:00 64° NNE
Cosmos 1244 Rocket 4.4 18:57:16 10° N 19:03:36 90° NNE 19:09:48 10° S
Cosmos 1980 Rocket 2.2 18:58:26 10° SSW 19:04:05 75° WNW 19:04:43 67° NNW
USA 215 4.0 19:07:18 37° NNE 19:07:18 37° NNE 19:12:42 10° NW
Cosmos 372 Rocket 4.2 19:03:11 10° SSW 19:07:54 67° WSW 19:07:54 67° WSW
Cosmos 2369 4.4 19:04:19 10° SSW 19:08:09 43° S 19:08:09 43° S
COSMO-SKYMED 1 4.1 19:10:34 30° WNW 19:11:01 31° WNW 19:14:38 10° SW
Cosmos 2263 Rocket 2.5 19:15:03 10° NNW 19:19:55 61° WNW 19:19:55 61° WNW
Cosmos 2227 Rocket 3.8 19:26:31 10° NW 19:31:26 31° WSW 19:36:19 10° SSW
BREEZE-M DEB (TANK) 4.5 19:57:05 10° WNW 20:33:56 - SE 20:02:12 77° SW
